Weather History for KWRI - January, 2013

Change the Weather History Date:

Friday, January 18, 2013

  Actual Average Record
Temperature  
Mean Temperature 29 °F -  
Max Temperature 36 °F 35 °F 62 °F (2006)
Min Temperature 22 °F 20 °F 3 °F (2003)
Degree Days  
Heating Degree Days 36    
Moisture  
Dew Point 17 °F    
Average Humidity 60    
Maximum Humidity 76    
Minimum Humidity 35    
Precipitation  
Precipitation 0.00 in - - ()
Sea Level Pressure  
Sea Level Pressure 30.30 in    
Wind  
Wind Speed 11 mph (NW)    
Max Wind Speed 23 mph    
Max Gust Speed 30 mph    
Visibility 10 miles    
Events Snow    
Averages and records for this station are not official NWS values.
T = Trace of Precipitation, MM = Missing Value Source: NWS Daily Summary

Daily Weather History Graph

Daily Weather History Graph

Search for Another Location

Airport or City:

Trip Planner

Search our weather history database for the weather conditions in past years. The results will help you decide how hot, cold, wet, or windy it might be!

Date:

Astronomy

Jan. 18, 2013 Rise Set
Actual Time 7:16 AM EST 5:01 PM EST
Civil Twilight 6:47 AM EST 5:30 PM EST
Nautical Twilight 6:14 AM EST 6:03 PM EST
Astronomical Twilight 5:41 AM EST 6:36 PM EST
Moon 10:54 AM EST (1/18) No Moon Set
Length of Visible Light 10h 43m
Length of Day
9h 44m
Waxing Crescent, 47% of the Moon is Illuminated
Jan 18
Waxing Crescent
Jan 18
First Quarter
Jan 26
Full
Feb 3
Last Quarter
Feb 10
New

Hourly Weather History & Observations

Time (EST) Temp. Windchill Dew Point Humidity Pressure Visibility Wind Dir Wind Speed Gust Speed Precip Events Conditions
12:55 AM 36.3 °F 30.8 °F 28.0 °F 72% 30.02 in 10.0 mi NNW 6.9 mph - N/A   Overcast
1:55 AM 35.8 °F 30.1 °F 26.4 °F 69% 30.02 in 10.0 mi NNW 6.9 mph - N/A   Mostly Cloudy
2:55 AM 34.7 °F 28.8 °F 26.4 °F 72% 30.06 in 10.0 mi NW 6.9 mph - N/A   Partly Cloudy
3:55 AM 34.3 °F 28.4 °F 25.7 °F 71% 30.07 in 10.0 mi WNW 6.9 mph - N/A   Overcast
4:08 AM 33.8 °F 25.8 °F 26.6 °F 75% 30.08 in 10.0 mi NW 10.4 mph - N/A   Overcast
4:21 AM 33.8 °F 25.8 °F 26.6 °F 75% 30.10 in 10.0 mi NNW 10.4 mph - N/A   Overcast
4:55 AM 32.2 °F 25.0 °F 25.3 °F 76% 30.10 in 10.0 mi North 8.1 mph - 0.00 in   Scattered Clouds
5:55 AM 32.5 °F 23.7 °F 25.0 °F 74% 30.16 in 10.0 mi North 11.5 mph - N/A   Overcast
6:41 AM 32.0 °F 22.5 °F 24.8 °F 75% 30.20 in 10.0 mi North 12.7 mph - N/A   Overcast
6:44 AM 32.0 °F 21.6 °F 24.8 °F 75% 30.21 in 10.0 mi North 15.0 mph - N/A   Overcast
6:46 AM 32.0 °F 21.2 °F 24.8 °F 75% 30.19 in 10.0 mi North 16.1 mph - N/A Snow Light Snow
6:55 AM 32.5 °F 21.5 °F 23.7 °F 70% 30.22 in 10.0 mi North 17.3 mph 20.7 mph 0.00 in Snow Light Snow
6:57 AM 32.0 °F 20.5 °F 23.0 °F 69% 30.22 in 10.0 mi NNW 18.4 mph 24.2 mph N/A   Overcast
7:20 AM 32.0 °F 21.2 °F 21.2 °F 64% 30.25 in 10.0 mi NNW 16.1 mph - N/A   Overcast
7:24 AM 32.0 °F 19.8 °F 19.4 °F 60% 30.25 in 10.0 mi NW 20.7 mph - N/A   Overcast
7:25 AM 32.0 °F 19.8 °F 19.4 °F 60% 30.25 in 10.0 mi NW 20.7 mph - N/A   Overcast
7:55 AM 30.0 °F 17.5 °F 16.2 °F 56% 30.30 in 10.0 mi NNW 19.6 mph 27.6 mph 0.00 in   Overcast
8:55 AM 30.2 °F 18.9 °F 12.6 °F 48% 30.36 in 10.0 mi NNW 16.1 mph 23.0 mph N/A   Clear
9:55 AM 30.2 °F 16.8 °F 6.6 °F 37% 30.41 in 10.0 mi NW 23.0 mph 29.9 mph N/A   Clear
10:55 AM 30.6 °F 19.0 °F 7.3 °F 38% 30.43 in 10.0 mi NW 17.3 mph 27.6 mph N/A   Clear
11:55 AM 30.6 °F 19.0 °F 9.0 °F 40% 30.43 in 10.0 mi NW 17.3 mph - N/A   Clear
12:55 PM 31.5 °F 21.8 °F 7.9 °F 37% 30.42 in 10.0 mi WNW 12.7 mph 21.9 mph N/A   Clear
1:55 PM 31.6 °F 22.1 °F 7.7 °F 37% 30.43 in 10.0 mi NNW 12.7 mph 20.7 mph N/A   Clear
2:55 PM 31.8 °F 22.8 °F 7.3 °F 36% 30.44 in 10.0 mi WNW 11.5 mph - N/A   Clear
3:55 PM 31.1 °F 24.5 °F 6.3 °F 35% 30.45 in 10.0 mi West 6.9 mph - N/A   Clear
4:55 PM 28.6 °F 22.4 °F 6.6 °F 39% 30.47 in 10.0 mi West 5.8 mph - N/A   Clear
5:55 PM 26.6 °F - 11.5 °F 53% 30.48 in 10.0 mi Calm Calm - N/A   Clear
6:55 PM 25.7 °F - 11.5 °F 55% 30.49 in 10.0 mi Calm Calm - N/A   Clear
7:55 PM 24.3 °F 17.3 °F 14.2 °F 65% 30.48 in 10.0 mi SSE 5.8 mph - N/A   Clear
8:55 PM 23.7 °F 16.6 °F 11.8 °F 61% 30.47 in 10.0 mi South 5.8 mph - N/A   Clear
9:55 PM 23.0 °F 17.0 °F 12.7 °F 65% 30.47 in 10.0 mi SSW 4.6 mph - N/A   Clear
10:55 PM 22.5 °F 17.8 °F 13.5 °F 68% 30.45 in 10.0 mi SSW 3.5 mph - N/A   Clear
11:55 PM 23.5 °F 16.4 °F 13.5 °F 65% 30.43 in 10.0 mi SSW 5.8 mph - N/A   Clear